This demonstration page uses our WeatherBlox Daily Observations layout. Learn more.

Left ArrowRight Arrow

Hourly Observations for March 15, 2015

Temp ( °F °C ) Dew Point ( °F °C ) Humidity (%) Winds ( mph kmh ) Pressure ( in mb ) Visibility ( mi km ) Precip ( " mm )
12:53 am 00:53 Clear 62 16.7 54 12.2 75 75 N 5 7 29.97 1015 10 16 0.00 0.00
1:53 am 01:53 Clear 60 15.6 54 12.2 80 80 Calm 29.95 1014 10 16 0.00 0.00
2:53 am 02:53 Clear 60 15.6 54 12.2 80 80 NNW 3 6 29.95 1014 10 16 0.00 0.00
3:53 am 03:53 Clear 58 14.4 55 12.8 90 90 Calm 29.93 1014 10 16 0.00 0.00
4:53 am 04:53 Clear 58 14.4 54 12.2 87 87 Calm 29.92 1013 10 16 0.00 0.00
5:53 am 05:53 Clear 57 13.9 54 12.2 90 90 Calm 29.94 1014 10 16 0.00 0.00
6:53 am 06:53 Clear 56 13.3 54 12.2 93 93 Calm 29.95 1014 10 16 0.00 0.00
7:53 am 07:53 Sunny 56 13.3 54 12.2 93 93 NW 3 6 29.95 1014 10 16 0.00 0.00
8:53 am 08:53 Sunny 60 15.6 55 12.8 84 84 N 3 6 29.97 1015 10 16 0.00 0.00
9:53 am 09:53 Sunny 63 17.2 56 13.3 78 78 Calm 29.99 1016 10 16 0.00 0.00
10:53 am 10:53 Sunny 64 17.8 56 13.3 75 75 WSW 3 6 29.98 1015 10 16 0.00 0.00
11:53 am 11:53 Sunny 64 17.8 56 13.3 75 75 Calm 30.00 1016 10 16 0.00 0.00
12:53 pm 12:53 Sunny 64 17.8 55 12.8 73 73 N 3 6 30.01 1016 10 16 0.00 0.00
1:53 pm 13:53 Sunny 65 18.3 54 12.2 68 68 Calm 29.99 1016 10 16 0.00 0.00
2:53 pm 14:53 Sunny 65 18.3 54 12.2 68 68 WNW 3 6 29.98 1015 10 16 0.00 0.00
3:53 pm 15:53 Mostly Cloudy 65 18.3 52 11.1 63 63 NW 5 7 29.99 1016 10 16 0.00 0.00
4:53 pm 16:53 Mostly Cloudy 65 18.3 51 10.6 61 61 Calm 30.01 1016 10 16 0.00 0.00
5:53 pm 17:53 Cloudy 66 18.9 44 6.7 45 45 NW 3 6 30.02 1017 10 16 0.00 0.00
6:53 pm 18:53 Cloudy 64 17.8 45 7.2 50 50 NNW 3 6 30.03 1017 10 16 0.00 0.00
7:53 pm 19:53 Cloudy with Light Rain 58 14.4 51 10.6 78 78 NNW 7 11 30.06 1018 10 16 0.00 0.03
8:53 pm 20:53 Cloudy with Light Rain 57 13.9 52 11.1 83 83 NNW 8 13 30.08 1019 10 16 0.02 0.51
9:53 pm 21:53 Cloudy with Light Rain 56 13.3 52 11.1 87 87 N 9 15 30.08 1019 10 16 0.03 0.76
10:53 pm 22:53 Cloudy 56 13.3 51 10.6 84 84 N 6 9 30.08 1019 10 16 0.00 0.03
11:53 pm 23:53 Cloudy 55 12.8 52 11.1 90 90 NNW 6 9 30.06 1018 10 16 0.00 0.03

Powered by AerisWeather